Location: *
(51.8167°N, 12.5000°E)
Time: 03:00:18
(UTC+00:00)

CZ-2C R/B - Visible Passes

Search period start: 13 December 2019 00:00
Search period end: 23 December 2019 00:00
Orbit: 641 x 704 km, 98.4° (Epoch: 12 December)

Date Brightness Start Highest point End Pass type
(mag) Time Alt. Az. Time Alt. Az. Time Alt. Az.
13 Dec 6.0 04:21:58 10° ESE 04:25:36 22° ENE 04:29:15 10° N visible
13 Dec 3.8 05:57:34 10° S 06:02:17 66° WSW 06:07:04 10° NNW visible
14 Dec 5.2 04:54:23 10° SE 04:58:47 38° ENE 05:03:11 10° N visible
15 Dec 6.6 03:53:27 10° E 03:55:48 14° NE 03:58:11 10° NNE visible
15 Dec 4.1 05:27:22 10° SSE 05:32:06 70° ENE 05:36:53 10° N visible
16 Dec 6.0 04:25:08 10° ESE 04:28:51 23° ENE 04:32:35 10° N visible
16 Dec 3.9 06:00:52 10° S 06:05:35 62° WSW 06:10:21 10° NNW visible
17 Dec 5.1 04:57:36 10° SE 05:02:02 40° ENE 05:06:30 10° N visible
18 Dec 6.5 03:56:31 10° E 03:59:02 14° NE 04:01:34 10° NNE visible
18 Dec 4.0 05:30:37 10° SSE 05:35:23 74° ENE 05:40:10 10° NNW visible
19 Dec 5.9 04:28:17 10° ESE 04:32:06 24° ENE 04:35:54 10° N visible
19 Dec 3.9 06:04:10 10° S 06:08:52 59° WSW 06:13:37 10° NNW visible
20 Dec 5.0 05:00:49 10° SE 05:05:18 42° ENE 05:09:48 10° N visible
21 Dec 6.5 03:59:37 10° E 04:02:17 15° NE 04:04:57 10° NNE visible
21 Dec 4.0 05:33:53 10° SSE 05:38:39 78° ENE 05:43:26 10° NNW visible
22 Dec 5.8 04:31:29 10° ESE 04:35:21 25° ENE 04:39:13 10° N visible
22 Dec 4.0 06:07:28 10° S 06:12:10 56° W 06:16:52 10° NNW visible
